Погода в Сакраменто

США     38°33′42″N   121°26′59″W
темп.,
°C
ветер,
м/с
пор.,
м/с
влажн.,
%
обл.,
%
осадки,
мм/ч
давл.,
гПа
погр.,
м
16 октября, сб
сб1623:00+18ссв11275 0.0 101911
02:00+16с11305 0.0 101812
05:00+14с22335 0.0 101819
08:00+14ссз22355 0.0 101741
11:00+21с22205 0.0 1017385
14:00+27юв01155 0.0 1014640
17:00+28юз13143 0.0 1012785
20:00+21ююз33215 0.0 101343
17 октября, вс
вс1723:00+18ю2227100 0.0 101333
02:00+16ююв343192 0.0 101262
05:00+14ю34330 0.0 101172
08:00+14ю3536100 0.0 1012105
11:00+20ююз4633100 0.0 1012703
14:00+25юз610178 0.0 10082179
17:00+19юз9134349 0.0 10081014
20:00+14зюз6136397 0.0 1010780
18 октября, пн
пн1823:00+12юз597333 0.1 1013472
02:00+11ююз597310 0.0 1013511
05:00+9юз47820 0.0 1015285
08:00+9юз238616 0.0 1017208
11:00+14юз125951 0.1 10181045
14:00+17ссв22430 0.0 10161322
17:00+18с23360 0.0 10151363
20:00+14сз23444 0.0 101568
19 октября, вт
вт1923:00+12ссз22515 0.0 101646
02:00+10сз225812 0.0 101646
05:00+9ссз11634 0.0 101634
08:00+9с116364 0.0 101746
11:00+16ю11415 0.0 1017573
14:00+20ююз24275 0.0 10151396
17:00+21юз3426100 0.0 10141403
20:00+14зюз4750100 0.0 1014152
20 октября, ср
ср2023:00+13ю2346100 0.0 101569
02:00+13ю2345100 0.0 1017114
05:00+14ю2246100 0.0 1017106
08:00+13ссз1150100 0.1 1018103
11:00+14ссз3454100 0.2 1019273
14:00+14с345492 0.0 1020295
17:00+15ссз3453100 0.0 1018189
20:00+13ссз5774100 0.3 1020271